Regional Weather Roundup
Issued by NWS Newport/Morehead, NC

Current Version | Previous Version | Text Only | Print | Product List | Glossary On
Versions: 1 2 3 4 5 6 7 8 9 10 11 12 13 14 15 16 17 18 19 20 21 22 23 24 25 26 27 28 29 30 31 32 33 34 35 36 37 38 39 40 41 42 43 44 45 46 47 48 49 50
898 ASUS42 KMHX 260313 RWRMHX WEATHER ROUNDUP FOR EASTERN NORTH CAROLINA NATIONAL WEATHER SERVICE NEWPORT/MOREHEAD CITY NC 1100 PM EDT SAT MAR 25 2017 NOTE: "FAIR" INDICATES FEW OR NO CLOUDS BELOW 12,000 FEET WITH NO SIGNIFICANT WEATHER AND/OR OBSTRUCTIONS TO VISIBILITY NCZ015>017-031-032-045>047-102-103-260400- NORTH COAST CITY SKY/WX TMP DP RH WIND PRES REMARKS EDENTON CLOUDY 62 53 72 CALM 30.27R ELIZABETH CITY CLOUDY 62 52 69 S9 30.25S KITTY HAWK NOT AVBL MANTEO MOCLDY 57 52 82 SW5 30.27F $$ NCZ045>047-081-094-103-104-260400- CENTRAL COAST CITY SKY/WX TMP DP RH WIND PRES REMARKS FRISCO CLOUDY 64 55 72 W5 30.28S $$ NCZ095-097-098-100-101-260400- SOUTHERN COAST CITY SKY/WX TMP DP RH WIND PRES REMARKS BEAUFORT PTCLDY 62 57 83 CALM 30.28S CEDAR ISLAND NOT AVBL JACKSONVILLE CLOUDY 62 56 80 CALM 30.27R PINEY ISLAND PTCLDY N/A N/A N/A S5 30.28S WILMINGTON PTCLDY 61 56 83 S6 30.26F $$ NCZ011>013-027>030-043-044-078>080-089-090>093-098-260400- COASTAL PLAIN CITY SKY/WX TMP DP RH WIND PRES REMARKS AHOSKIE NOT AVBL CLINTON MOCLDY 62 54 75 CALM 30.27S ELIZABETHTOWN PTCLDY 60 54 79 S3 30.26S GOLDSBORO PTCLDY 63 55 73 S5 30.24S GREENVILLE PTCLDY 63 54 72 S8 30.26F HAVELOCK NOT AVBL KENANSVILLE CLOUDY 57 52 82 CALM 30.27S KINSTON CLOUDY 62 54 75 S5 30.27S NEW BERN CLOUDY 59 55 87 CALM 30.28S RICHLANDS MOCLDY 57 54 89 CALM 30.27S ROCKY MOUNT MOCLDY 63 53 70 S6 30.24S WASHINGTON PTCLDY 61 53 75 CALM 30.27S WHITEVILLE MOCLDY 60 53 77 CALM 30.26S $$ AMZ130-135-150-152-154-156-158-170-250-252-270-ANZ085-086-088-633-658-670-260400- MARINE OBSERVATIONS STATION/POSITION TIME TEMP WIND PRES WAVE SWELL AIR SEA DIR/SP/G HT/PER HT/PER (UTC) (F) (DEG/KT/KT) (MB) (FT/S) (FT/S) CHESAPEAKE LIGHT NOT AVBL 64 E VA BEACH 0250 54 49 220/ 12/ 12 1024.4 3/ 4 2/ 5 DUCK 0248 62 49 200/ 11/ 14 1024.0 2 E DUCK 0300 49 N/A 1/11 OREGON INLET 0248 210/ 9/ 11 N/A 13E OREGON INLT 0248 50 N/A 2/ 8 2/ 8 HATTERAS CG 0248 63 58 240/ 5/ 6 1025.1 DIAMOND BUOY 0250 69 76 190/ 14/ 17 1025.5 3/ 5 2/ 8 CAPE LOOKOUT 0300 67 190/ 10/ 10 1025.0 BEAUFORT LAB 0248 61 54 220/ 2/ 3 1024.4 30 SE NEW RVR IN 0208 65 200/ 2/ 4 1025.6 30 SE NEW RVR IN 0243 66 N/A 3/ 8 27 SE WRIGHTSVLE 0208 64 63 130/ 4/ 6 1024.3 5 SE WRIGHTSVLE 0208 61 59 150/ 6/ 8 1024.9 225 S CAPE HAT 0250 67 73 90/ 12/ 16 1026.7 4/ 8 3/ 8 41 SE CHARLESTON 0250 71 70 130/ 14/ 17 1023.7 4/ 8 2/ 8 $$

USA.gov is the U.S. government's official web portal to all federal, state and local government web resources and services.